Regional Weather Roundup
Issued by NWS

Home | Current Version | Previous Version | Graphics & Text | Print | Product List | Glossary On
Versions: 1 2 3 4 5 6 7 8 9 10 11 12 13 14 15 16 17 18 19 20 21 22 23 24 25 26 27 28 29 30 31 32 33 34 35 36 37 38 39 40 41 42 43 44 45 46 47 48 49 50
000
ASUS43 KMPX 170810
RWRMN
WEATHER ROUNDUP FOR MINNESOTA
NATIONAL WEATHER SERVICE TWIN CITIES/CHANHASSEN MN
300 AM CDT THU APR 17 2014


NOTE: "FAIR" INDICATES FEW OR NO CLOUDS BELOW 12,000 FEET WITH NO
SIGNIFICANT WEATHER AND/OR OBSTRUCTIONS TO VISIBILITY. N/A MEANS
CURRENT SKY AND/OR WEATHER CONDITIONS ARE NOT AVAILABLE.

MNZ060>063-068>070-170900-
   Twin Cities Metro

CITY           SKY/WX    TMP DP  RH WIND       PRES   REMARKS
TWIN CITIES    CLOUDY    28  28 100 N16G24    30.01R WCI  16
ST PAUL        CLOUDY    30  27  88 N15       30.02R WCI  19
CRYSTAL        LGT SNOW  29  26  89 N14       30.02R FOG     WCI  18
BLAINE         MIX PCPN  30  28  93 N16       30.02R WCI  19
EDEN PRAIRIE   CLOUDY    30  27  88 N16G23    29.99R WCI  19
LAKEVILLE      CLOUDY    28  27  93 N15G28    29.98R WCI  17
SOUTH ST PAUL  CLOUDY    32  32  98 N13G21    29.99R WCI  23
LAKE ELMO      CLOUDY    32  30  93 N12       30.00R WCI  23
$$
MNZ001>005-007-008-013>017-022>024-027-028-170900-
   Northwest Minnesota

CITY           SKY/WX    TMP DP  RH WIND       PRES   REMARKS
BEMIDJI        CLEAR     20   8  59 N5        30.23R WCI  13
HALLOCK        CLOUDY    25  12  58 NE6       30.33S WCI  18
ROSEAU         CLEAR     21  12  68 N7        30.31S WCI  13
WARROAD        CLEAR     21   9  58 N8        30.31S WCI  12
THIEF RVR FALL CLEAR     25  12  58 N8        30.29S WCI  16
CROOKSTON      CLEAR     25  19  80 N6        30.31R WCI  18
FOSSTON        CLEAR     21  10  63 N7        30.25S WCI  13
DETROIT LAKES  CLEAR     27  19  74 N5        30.23S WCI  21
MOORHEAD       CLEAR     27  25  93 NW7       30.27R WCI  19
PARK RAPIDS    CLEAR     23  18  81 N7        30.19S WCI  15
$$
MNZ006-009>011-018-025>026-170900-
   North Central Minnesota

CITY           SKY/WX    TMP DP  RH WIND       PRES   REMARKS
BAUDETTE       CLEAR     24   6  46 NE8       30.28S WCI  15
FLAG ISLAND    CLEAR     19   5  53 N7        30.31S WCI  10
INTL FALLS     PTCLDY    24   7  48 NE6       30.26S WCI  17
WASKISH        CLEAR     21   9  58 N5        30.26S WCI  15
BIG FORK       CLEAR     27  18  69 N5        30.22S WCI  21
LONGVILLE      MOCLDY    23  19  86 N6        30.18S WCI  16
GRAND RAPIDS   CLOUDY    25  19  80 N7        30.17S WCI  17
CRANE LAKE     MOCLDY    23  12  63 CALM      30.27S
ORR            CLOUDY    25  14  63 CALM      30.20S
COOK           LGT SNOW  25  21  86 NE6       30.20F WCI  18
$$
MNZ012-019>021-037-170900-
   Northeast Minnesota

CITY           SKY/WX    TMP DP  RH WIND       PRES   REMARKS
DULUTH         LGT SNOW  29  25  85 NE15      30.10S VSB 3/4 WCI  18
ELY            LGT SNOW  23  19  86 NE7       30.18F WCI  15
HIBBING        FLURRIES  26  20  77 NE9       30.16F WCI  17
EVELETH        LGT SNOW  27  21  80 NE10      30.16F WCI  17
DULUTH HARBOR  LGT SNOW  30  28  93 NE22      30.13F WCI  17
TWO HARBORS    LGT SNOW  28  23  80 E12G26    30.11F WCI  18
SILVER BAY     LGT SNOW  27  27 100 NE17G25   30.13F WCI  14
GRAND MARAIS     N/A     30  27  88 NE18G28   30.23F WCI  18
G MARAIS ARPRT LGT SNOW  25  19  80 NE15G22   30.17F WCI  12
$$
MNZ029>031-032-039>041-046>048-054>057-064-170900-
   West Central Minnesota

CITY           SKY/WX    TMP DP  RH WIND       PRES   REMARKS
FERGUS FALLS   CLEAR     25  18  74 N7        30.21R WCI  17
WHEATON        CLEAR     25  21  86 NW6       30.25S WCI  18
MORRIS         CLEAR     21  18  86 N12       30.19R WCI   9
ALEXANDRIA     CLEAR     23  17  78 N13       30.16R WCI  11
ELBOW LAKE     FAIR      23  19  85 N7        30.20R WCI  14
WADENA         CLEAR     21  18  86 N9        30.18S WCI  11
GLENWOOD       CLEAR     21  18  86 N10       30.15R WCI  10
APPLETON       CLEAR     21  18  86 N9        30.20R WCI  11
BENSON         CLEAR     21  18  86 N8        30.17R WCI  12
ORTONVILLE     CLEAR     21  18  86 N8        30.20S WCI  12
MADISON        CLEAR     27  21  80 NW13      30.20S WCI  16
WILLMAR        FAIR      25  19  80 N12       30.14R WCI  14
$$
MNZ033>034-036-042>043-049>051-058-059-170900-
   Central Minnesota

CITY           SKY/WX    TMP DP  RH WIND       PRES   REMARKS
ST CLOUD       CLOUDY    28  22  78 N13       30.09S WCI  17
SAUK CENTRE    FAIR      23  19  83 N9        30.14R WCI  13
PAYNESVILLE    CLEAR     25  20  83 N7        30.12R WCI  17
AITKIN         CLOUDY    28  19  69 N8        30.13R WCI  20
PINE RIVER     CLEAR     23  19  86 N7        30.20S WCI  15
BRAINERD       MOCLDY    29  19  66 N10       30.15R WCI  20
STAPLES        CLEAR     19  16  86 N7        30.17S WCI  10
LONG PRAIRIE   FAIR      21  18  86 NW10      30.14S WCI  10
LITTLE FALLS   CLEAR     27  19  74 N6        30.13S WCI  20
LITCHFIELD     PTCLDY    27  25  93 N13       30.10R WCI  16
BUFFALO        CLOUDY    30  25  82 N13G18    30.07R WCI  20
MAPLE LAKE     CLOUDY    30  27  87 N14G22    30.08R WCI  19
$$
MNZ037-044-045-052-053-170900-
   East Central Minnesota

CITY           SKY/WX    TMP DP  RH WIND       PRES   REMARKS
PRINCETON      CLOUDY    30  25  80 N13       30.07S WCI  20
MORA           CLOUDY    30  25  80 N7G17     30.09S WCI  23
CAMBRIDGE      MIX PCPN  30  25  80 N10G16    30.04S WCI  21
RUSH CITY      CLOUDY    29  27  91 N13G21    30.05S WCI  19
MOOSE LAKE     LGT SNOW  28  27  93 N10       30.08S WCI  19
HINCKLEY       MIX PCPN  30  28  93 N14G22    30.07S WCI  20
CLOQUET        LGT SNOW  28  27  93 NE8       30.10F WCI  20
MCGREGOR       CLOUDY    27  23  86 N10       30.13S WCI  17
$$
MNZ071>073-080-081-089-090-097-098-170900-
   Southwest Minnesota

CITY           SKY/WX    TMP DP  RH WIND       PRES   REMARKS
MONTEVIDEO     CLEAR     21  18  86 N9        30.19R WCI  11
GRANITE FALLS  CLEAR     23  18  82 NW12      30.18R WCI  12
CANBY          CLEAR     21  18  90 NW8       30.20S WCI  11
MARSHALL       CLEAR     25  18  74 N16       30.15S WCI  12
REDWOOD FALLS  PTCLDY    27  22  81 N13G21    30.12R WCI  16
OLIVIA         CLEAR     27  21  80 NW9       30.12R WCI  17
PIPESTONE      CLOUDY    27  23  86 N8        30.15R WCI  18
WINDOM         CLOUDY    28  25  86 NW20G26   30.10R WCI  15
WORTHINGTON    CLOUDY    27  19  74 NW21      30.14R WCI  13
JACKSON        CLOUDY    30  27  86 NW22      30.10R WCI  17
TRACY          MOCLDY    27  23  85 N16       30.13S WCI  14
SLAYTON        CLOUDY    26  23  89 NW13G20   30.14R WCI  15
$$
MNZ065>067-074>077-082>085-091>093-170900-
   South Central Minnesota

CITY           SKY/WX    TMP DP  RH WIND       PRES   REMARKS
MANKATO        CLOUDY    30  25  80 N20       30.03R WCI  18
NEW ULM        CLOUDY    28  27  93 N15G26    30.07R WCI  17
ST JAMES       CLOUDY    30  27  86 NW21G31   30.08R WCI  17
FAIRMONT       CLOUDY    28  25  86 NW21G26   30.08R WCI  15
GLENCOE        CLOUDY    30  25  80 N16G24    30.05R WCI  19
FARIBAULT      CLOUDY    34  28  80 N17G24    29.97R WCI  23
OWATONNA       CLOUDY    32  30  93 NW22      29.96R WCI  19
WASECA         CLOUDY    34  32  93 NW23      30.00R WCI  22
ALBERT LEA     CLOUDY    30  30 100 NW16G23   29.96R WCI  19
$$
MNZ078>079-086>088-094>096-170900-
   Southeast Minnesota

CITY           SKY/WX    TMP DP  RH WIND       PRES   REMARKS
ROCHESTER      CLOUDY    39  37  92 W20       29.85R FOG
RED WING       CLOUDY    39  37  93 N9G16     29.92R FOG
STANTON        CLOUDY    32  31  96 N16       29.94R WCI  21
DODGE CENTER   FOG       36  36 100 NW20G29   29.89R VSB 3/4
WINONA         LGT RAIN  48  32  53 S7        29.87S
AUSTIN         CLOUDY    30  30 100 NW22G28   29.92R FOG     WCI  17
PRESTON        CLOUDY    41  38  89 W21G26    29.86R
$$
ABBREVIATIONS USED IN REMARKS
   TC - TEMPERATURES IN CELSIUS
  WCI - WIND CHILL INDEX
   HX - HEAT INDEX
  VSB - VISIBILITY
$$



USA.gov is the U.S. government's official web portal to all federal, state and local government web resources and services.